ARG1681 SAZS-SABE

Flight info

Callsign ARG1681
Flight time 1h 38m
Altitude 37000
Route LIMAY2C LIMAY UZ109 ISMIL UT655 ASADA ASADA8Q
Aircraft B738/M-MSDFGHILRVW/LB1

Departure

Time 2026-04-25 22:49
Airport Teniente Luis Candelaria International Airport (SAZS)

Arrival

Time 2026-04-26 00:28
Airport Aeroparque Jorge Newbery (SABE)
Time Latitude Longitude Altitude Speed Heading
2026-04-25 22:20 -41.14698 -71.16158 2748 ft 0 kts 58°
2026-04-25 22:39 -41.14700 -71.16162 2748 ft 2 kts 58°
2026-04-25 22:39 -41.14710 -71.16182 2748 ft 3 kts 49°
2026-04-25 22:39 -41.14724 -71.16199 2748 ft 3 kts 21°
2026-04-25 22:40 -41.14740 -71.16202 2752 ft 3 kts 337°
2026-04-25 22:40 -41.14759 -71.16193 2749 ft 3 kts 348°
2026-04-25 22:40 -41.14778 -71.16191 2749 ft 3 kts 13°
2026-04-25 22:40 -41.14793 -71.16199 2751 ft 3 kts 65°
2026-04-25 22:41 -41.14795 -71.16211 2750 ft 1 kts 112°
2026-04-25 22:41 -41.14789 -71.16229 2751 ft 3 kts 113°
2026-04-25 22:41 -41.14781 -71.16253 2752 ft 2 kts 114°
2026-04-25 22:41 -41.14779 -71.16259 2752 ft 0 kts 115°
2026-04-25 22:44 -41.14780 -71.16258 2752 ft 1 kts 115°
2026-04-25 22:44 -41.14793 -71.16221 2752 ft 7 kts 115°
2026-04-25 22:44 -41.14817 -71.16151 2748 ft 10 kts 115°
2026-04-25 22:44 -41.14849 -71.16058 2748 ft 12 kts 115°
2026-04-25 22:45 -41.14887 -71.15952 2750 ft 14 kts 115°
2026-04-25 22:45 -41.14932 -71.15823 2748 ft 17 kts 115°
2026-04-25 22:45 -41.14987 -71.15664 2748 ft 20 kts 115°
2026-04-25 22:45 -41.15045 -71.15500 2748 ft 19 kts 115°
2026-04-25 22:46 -41.15101 -71.15338 2749 ft 19 kts 115°
2026-04-25 22:46 -41.15155 -71.15183 2748 ft 18 kts 114°
2026-04-25 22:46 -41.15207 -71.15034 2748 ft 18 kts 115°
2026-04-25 22:46 -41.15258 -71.14888 2750 ft 17 kts 115°
2026-04-25 22:47 -41.15307 -71.14749 2748 ft 17 kts 115°
2026-04-25 22:47 -41.15359 -71.14599 2750 ft 19 kts 115°
2026-04-25 22:47 -41.15414 -71.14472 2748 ft 13 kts 149°
2026-04-25 22:47 -41.15479 -71.14491 2748 ft 9 kts 204°
2026-04-25 22:48 -41.15533 -71.14525 2749 ft 7 kts 218°
2026-04-25 22:48 -41.15531 -71.14564 2748 ft 2 kts 294°
2026-04-25 22:48 -41.15513 -71.14617 2749 ft 24 kts 294°
2026-04-25 22:48 -41.15340 -71.15111 2751 ft 93 kts 295°
2026-04-25 22:49 -41.14987 -71.16131 2768 ft 148 kts 295°
2026-04-25 22:49 -41.14534 -71.17428 3373 ft 155 kts 294°
2026-04-25 22:49 -41.14092 -71.18726 4157 ft 155 kts 293°
2026-04-25 22:49 -41.13652 -71.20043 4991 ft 157 kts 292°
2026-04-25 22:50 -41.13187 -71.21435 5483 ft 176 kts 292°
2026-04-25 22:50 -41.12671 -71.22982 5807 ft 195 kts 291°
2026-04-25 22:50 -41.12095 -71.24724 6055 ft 217 kts 290°
2026-04-25 22:50 -41.11473 -71.26590 6687 ft 225 kts 290°
2026-04-25 22:51 -41.10818 -71.28493 7547 ft 223 kts 289°
2026-04-25 22:51 -41.10188 -71.30294 8645 ft 214 kts 286°
2026-04-25 22:51 -41.09570 -71.32116 9517 ft 214 kts 284°
2026-04-25 22:51 -41.08968 -71.33893 10359 ft 214 kts 283°
2026-04-25 22:52 -41.08159 -71.35657 10825 ft 246 kts 301°
2026-04-25 22:52 -41.06648 -71.37131 11005 ft 290 kts 319°
2026-04-25 22:52 -41.04636 -71.38097 11199 ft 334 kts 338°
2026-04-25 22:52 -41.03035 -71.38259 11493 ft 358 kts 353°
2026-04-25 22:53 -40.99691 -71.37070 12415 ft 390 kts 21°
2026-04-25 22:53 -40.97456 -71.34928 13198 ft 403 kts 40°
2026-04-25 22:53 -40.95756 -71.31978 13909 ft 411 kts 62°
2026-04-25 22:53 -40.94586 -71.28517 14571 ft 416 kts 71°
2026-04-25 22:54 -40.93534 -71.24888 15195 ft 421 kts 71°
2026-04-25 22:54 -40.92460 -71.21285 15784 ft 427 kts 71°
2026-04-25 22:54 -40.91353 -71.17598 16425 ft 432 kts 71°
2026-04-25 22:54 -40.90247 -71.13914 16997 ft 437 kts 71°
2026-04-25 22:55 -40.89128 -71.10180 17637 ft 442 kts 72°
2026-04-25 22:55 -40.87982 -71.06355 18263 ft 447 kts 72°
2026-04-25 22:55 -40.86839 -71.02539 18801 ft 451 kts 73°
2026-04-25 22:55 -40.85686 -70.98693 19418 ft 454 kts 73°
2026-04-25 22:56 -40.84511 -70.94779 20006 ft 457 kts 74°
2026-04-25 22:56 -40.83341 -70.90887 20539 ft 462 kts 74°
2026-04-25 22:56 -40.82154 -70.86943 21104 ft 463 kts 74°
2026-04-25 22:56 -40.80970 -70.83031 22115 ft 455 kts 75°
2026-04-25 22:57 -40.79787 -70.79117 22630 ft 460 kts 75°
2026-04-25 22:57 -40.78606 -70.75201 22998 ft 466 kts 75°
2026-04-25 22:57 -40.77395 -70.71195 23494 ft 470 kts 76°
2026-04-25 22:57 -40.76586 -70.68529 23797 ft 471 kts 76°
2026-04-25 22:58 -40.74802 -70.63222 24352 ft 481 kts 67°
2026-04-25 22:58 -40.73632 -70.60698 24558 ft 491 kts 60°
2026-04-25 22:58 -40.71441 -70.57143 24851 ft 502 kts 51°
2026-04-25 22:58 -40.69048 -70.53830 25372 ft 505 kts 49°
2026-04-25 22:59 -40.66642 -70.50557 26161 ft 496 kts 47°
2026-04-25 22:59 -40.64249 -70.47240 26606 ft 499 kts 48°
2026-04-25 22:59 -40.61871 -70.43868 26830 ft 505 kts 49°
2026-04-25 22:59 -40.59542 -70.40446 27154 ft 508 kts 53°
2026-04-25 23:00 -40.56645 -70.35551 27681 ft 510 kts 56°
2026-04-25 23:00 -40.55215 -70.33015 27939 ft 511 kts 57°
2026-04-25 23:00 -40.53136 -70.29276 28260 ft 514 kts 57°
2026-04-25 23:00 -40.51014 -70.25456 28610 ft 517 kts 57°
2026-04-25 23:01 -40.48890 -70.21664 28947 ft 520 kts 56°
2026-04-25 23:01 -40.46715 -70.17816 29380 ft 522 kts 54°
2026-04-25 23:01 -40.44559 -70.14034 29701 ft 522 kts 54°
2026-04-25 23:01 -40.42361 -70.10202 30095 ft 523 kts 54°
2026-04-25 23:02 -40.40176 -70.06407 30345 ft 526 kts 54°
2026-04-25 23:02 -40.37954 -70.02554 30607 ft 528 kts 53°
2026-04-25 23:02 -40.35746 -69.98727 30889 ft 529 kts 53°
2026-04-25 23:02 -40.33510 -69.94857 31193 ft 530 kts 53°
2026-04-25 23:03 -40.31293 -69.91020 31461 ft 531 kts 53°
2026-04-25 23:03 -40.29077 -69.87190 31766 ft 532 kts 53°
2026-04-25 23:03 -40.26860 -69.83360 32382 ft 524 kts 52°
2026-04-25 23:03 -40.24670 -69.79582 33043 ft 516 kts 52°
2026-04-25 23:04 -40.22489 -69.75825 33307 ft 517 kts 52°
2026-04-25 23:04 -40.20320 -69.72091 33430 ft 521 kts 52°
2026-04-25 23:04 -40.18139 -69.68344 33622 ft 523 kts 52°
2026-04-25 23:04 -40.15914 -69.64525 33995 ft 521 kts 52°
2026-04-25 23:05 -40.13724 -69.60770 34335 ft 517 kts 52°
2026-04-25 23:05 -40.11552 -69.57050 34574 ft 517 kts 52°
2026-04-25 23:05 -40.09385 -69.53344 34710 ft 520 kts 52°
2026-04-25 23:05 -40.07162 -69.49546 34892 ft 522 kts 51°
2026-04-25 23:06 -40.04955 -69.45780 35083 ft 523 kts 51°
2026-04-25 23:06 -40.02760 -69.42038 35329 ft 522 kts 51°
2026-04-25 23:06 -40.00570 -69.38310 35559 ft 522 kts 51°
2026-04-25 23:06 -39.98338 -69.34515 35748 ft 522 kts 51°
2026-04-25 23:07 -39.96137 -69.30778 35942 ft 523 kts 51°
2026-04-25 23:07 -39.93916 -69.27011 36149 ft 523 kts 51°
2026-04-25 23:07 -39.91708 -69.23269 36379 ft 523 kts 51°
2026-04-25 23:07 -39.89475 -69.19491 36602 ft 522 kts 51°
2026-04-25 23:08 -39.87268 -69.15761 36771 ft 524 kts 50°
2026-04-25 23:08 -39.85056 -69.12027 36862 ft 526 kts 50°
2026-04-25 23:08 -39.82796 -69.08217 36966 ft 527 kts 50°
2026-04-25 23:08 -39.80559 -69.04450 36997 ft 529 kts 50°
2026-04-25 23:09 -39.76067 -68.96897 36990 ft 529 kts 50°
2026-04-25 23:09 -39.71565 -68.89346 36999 ft 527 kts 50°
2026-04-25 23:10 -39.67080 -68.81841 37000 ft 525 kts 50°
2026-04-25 23:10 -39.62612 -68.74384 37000 ft 525 kts 50°
2026-04-25 23:11 -39.58120 -68.66904 36998 ft 525 kts 50°
2026-04-25 23:11 -39.53620 -68.59428 36963 ft 526 kts 50°
2026-04-25 23:12 -39.49133 -68.51991 36990 ft 527 kts 50°
2026-04-25 23:12 -39.44610 -68.44512 36988 ft 528 kts 50°
2026-04-25 23:13 -39.40072 -68.37023 36985 ft 529 kts 50°
2026-04-25 23:13 -39.35523 -68.29534 36975 ft 530 kts 50°
2026-04-25 23:14 -39.30961 -68.22047 36969 ft 531 kts 50°
2026-04-25 23:14 -39.26390 -68.14568 36971 ft 531 kts 50°
2026-04-25 23:15 -39.21818 -68.07102 36908 ft 530 kts 49°
2026-04-25 23:15 -39.17283 -67.99710 36950 ft 526 kts 49°
2026-04-25 23:16 -39.12760 -67.92354 36955 ft 524 kts 49°
2026-04-25 23:16 -39.08236 -67.85016 36960 ft 522 kts 49°
2026-04-25 23:17 -39.03711 -67.77691 36962 ft 520 kts 49°
2026-04-25 23:17 -38.99238 -67.70468 36972 ft 519 kts 49°
2026-04-25 23:18 -38.94730 -67.63205 36979 ft 518 kts 49°
2026-04-25 23:18 -38.90222 -67.55959 36978 ft 519 kts 49°
2026-04-25 23:19 -38.85722 -67.48740 36982 ft 519 kts 49°
2026-04-25 23:19 -38.81214 -67.41527 36974 ft 519 kts 49°
2026-04-25 23:20 -38.76701 -67.34320 36976 ft 519 kts 49°
2026-04-25 23:20 -38.72196 -67.27142 36975 ft 519 kts 49°
2026-04-25 23:21 -38.67655 -67.19924 36979 ft 519 kts 48°
2026-04-25 23:21 -38.63122 -67.12734 36973 ft 519 kts 48°
2026-04-25 23:22 -38.58612 -67.05596 36910 ft 519 kts 48°
2026-04-25 23:23 -38.51824 -66.94882 36964 ft 517 kts 48°
2026-04-25 23:23 -38.47304 -66.87767 36971 ft 516 kts 47°
2026-04-25 23:24 -38.42776 -66.80657 36969 ft 516 kts 47°
2026-04-25 23:24 -38.38236 -66.73540 36963 ft 516 kts 47°
2026-04-25 23:25 -38.33782 -66.66445 36952 ft 517 kts 52°
2026-04-25 23:25 -38.30206 -66.58474 36974 ft 519 kts 60°
2026-04-25 23:26 -38.26872 -66.50333 36952 ft 519 kts 60°
2026-04-25 23:26 -38.23498 -66.42193 36948 ft 518 kts 59°
2026-04-25 23:27 -38.20087 -66.34109 36960 ft 518 kts 59°
2026-04-25 23:27 -38.16655 -66.26044 36967 ft 519 kts 59°
2026-04-25 23:28 -38.13228 -66.18011 36970 ft 520 kts 59°
2026-04-25 23:28 -38.09776 -66.09932 36966 ft 521 kts 59°
2026-04-25 23:29 -38.06317 -66.01850 36964 ft 522 kts 59°
2026-04-25 23:29 -38.02842 -65.93754 36964 ft 522 kts 59°
2026-04-25 23:30 -37.99359 -65.85659 36961 ft 523 kts 58°
2026-04-25 23:30 -37.95870 -65.77571 36970 ft 523 kts 58°
2026-04-25 23:31 -37.92396 -65.69539 36970 ft 523 kts 58°
2026-04-25 23:31 -37.88898 -65.61470 36960 ft 523 kts 58°
2026-04-25 23:32 -37.85388 -65.53395 36967 ft 522 kts 58°
2026-04-25 23:32 -37.81872 -65.45325 36928 ft 522 kts 58°
2026-04-25 23:33 -37.78369 -65.37307 36966 ft 521 kts 58°
2026-04-25 23:33 -37.74873 -65.29325 36970 ft 520 kts 58°
2026-04-25 23:34 -37.71383 -65.21376 36971 ft 520 kts 58°
2026-04-25 23:34 -37.67863 -65.13379 36966 ft 520 kts 58°
2026-04-25 23:35 -37.64347 -65.05410 36971 ft 521 kts 58°
2026-04-25 23:35 -37.60808 -64.97408 36987 ft 521 kts 57°
2026-04-25 23:36 -37.57296 -64.89488 36969 ft 521 kts 57°
2026-04-25 23:36 -37.53762 -64.81538 36972 ft 521 kts 57°
2026-04-25 23:37 -37.50205 -64.73555 36973 ft 522 kts 57°
2026-04-25 23:37 -37.46653 -64.65601 36973 ft 522 kts 57°
2026-04-25 23:38 -37.43093 -64.57649 36974 ft 522 kts 57°
2026-04-25 23:38 -37.39525 -64.49700 36974 ft 522 kts 57°
2026-04-25 23:39 -37.35933 -64.41713 36944 ft 522 kts 57°
2026-04-25 23:39 -37.32369 -64.33824 36947 ft 522 kts 57°
2026-04-25 23:40 -37.28752 -64.25917 36966 ft 521 kts 56°
2026-04-25 23:40 -37.25119 -64.18009 36976 ft 521 kts 56°
2026-04-25 23:41 -37.21518 -64.10175 36975 ft 521 kts 56°
2026-04-25 23:41 -37.17875 -64.02262 36965 ft 521 kts 56°
2026-04-25 23:42 -37.14265 -63.94437 36972 ft 521 kts 56°
2026-04-25 23:42 -37.10635 -63.86587 36973 ft 521 kts 56°
2026-04-25 23:43 -37.06993 -63.78733 36975 ft 520 kts 56°
2026-04-25 23:43 -37.03367 -63.70931 36979 ft 520 kts 56°
2026-04-25 23:44 -36.99730 -63.63123 36973 ft 519 kts 56°
2026-04-25 23:44 -36.96087 -63.55320 36970 ft 519 kts 56°
2026-04-25 23:45 -36.92446 -63.47540 36923 ft 518 kts 56°
2026-04-25 23:45 -36.88809 -63.39788 36980 ft 516 kts 55°
2026-04-25 23:46 -36.85197 -63.32107 36973 ft 516 kts 55°
2026-04-25 23:46 -36.81563 -63.24398 36971 ft 516 kts 55°
2026-04-25 23:47 -36.77918 -63.16682 36970 ft 516 kts 55°
2026-04-25 23:47 -36.74278 -63.08994 36967 ft 516 kts 55°
2026-04-25 23:48 -36.70624 -63.01297 36975 ft 516 kts 55°
2026-04-25 23:48 -36.66968 -62.93611 36979 ft 516 kts 55°
2026-04-25 23:49 -36.63309 -62.85936 36973 ft 516 kts 55°
2026-04-25 23:49 -36.59642 -62.78262 36967 ft 516 kts 54°
2026-04-25 23:50 -36.55969 -62.70594 36975 ft 516 kts 54°
2026-04-25 23:50 -36.52275 -62.62899 36974 ft 516 kts 54°
2026-04-25 23:51 -36.48612 -62.55287 36978 ft 516 kts 54°
2026-04-25 23:51 -36.44927 -62.47645 36971 ft 516 kts 54°
2026-04-25 23:52 -36.41231 -62.39999 36969 ft 516 kts 54°
2026-04-25 23:52 -36.37525 -62.32351 36981 ft 517 kts 54°
2026-04-25 23:53 -36.33822 -62.24725 36978 ft 518 kts 54°
2026-04-25 23:53 -36.30086 -62.17045 36974 ft 518 kts 53°
2026-04-25 23:54 -36.26373 -62.09434 36969 ft 519 kts 53°
2026-04-25 23:54 -36.22629 -62.01773 36985 ft 520 kts 53°
2026-04-25 23:55 -36.18885 -61.94130 36969 ft 520 kts 53°
2026-04-25 23:55 -36.15134 -61.86490 36970 ft 520 kts 53°
2026-04-25 23:56 -36.11375 -61.78848 36976 ft 520 kts 53°
2026-04-25 23:56 -36.07609 -61.71203 36974 ft 520 kts 53°
2026-04-25 23:57 -36.03852 -61.63580 36973 ft 519 kts 53°
2026-04-25 23:57 -36.00106 -61.55997 36960 ft 518 kts 53°
2026-04-25 23:58 -35.96346 -61.48401 36970 ft 518 kts 53°
2026-04-25 23:58 -35.92567 -61.40785 36979 ft 518 kts 53°
2026-04-25 23:59 -35.88801 -61.33210 36972 ft 519 kts 53°
2026-04-25 23:59 -35.85669 -61.26902 36977 ft 519 kts 53°
2026-04-26 00:00 -35.81277 -61.18015 36975 ft 520 kts 53°
2026-04-26 00:00 -35.78150 -61.11695 36980 ft 520 kts 53°
2026-04-26 00:00 -35.75632 -61.06619 36598 ft 526 kts 53°
2026-04-26 00:01 -35.74360 -61.04062 36233 ft 526 kts 53°
2026-04-26 00:01 -35.72441 -61.00202 35682 ft 524 kts 53°
2026-04-26 00:01 -35.70552 -60.96404 35100 ft 524 kts 53°
2026-04-26 00:01 -35.68011 -60.91304 34495 ft 520 kts 53°
2026-04-26 00:02 -35.66757 -60.88786 34201 ft 517 kts 53°
2026-04-26 00:02 -35.64895 -60.85056 33728 ft 514 kts 53°
2026-04-26 00:02 -35.63023 -60.81310 33227 ft 510 kts 53°
2026-04-26 00:02 -35.61183 -60.77633 32789 ft 505 kts 53°
2026-04-26 00:03 -35.59342 -60.73958 32362 ft 499 kts 53°
2026-04-26 00:03 -35.57535 -60.70356 31939 ft 495 kts 53°
2026-04-26 00:03 -35.55734 -60.66768 31483 ft 490 kts 53°
2026-04-26 00:03 -35.53960 -60.63240 31122 ft 484 kts 53°
2026-04-26 00:04 -35.52193 -60.59729 30711 ft 480 kts 53°
2026-04-26 00:04 -35.50452 -60.56274 30311 ft 476 kts 53°
2026-04-26 00:04 -35.48725 -60.52851 29901 ft 473 kts 53°
2026-04-26 00:04 -35.46988 -60.49411 29430 ft 468 kts 53°
2026-04-26 00:05 -35.45295 -60.46059 29021 ft 463 kts 53°
2026-04-26 00:05 -35.43603 -60.42713 28603 ft 458 kts 53°
2026-04-26 00:05 -35.41944 -60.39434 28198 ft 453 kts 53°
2026-04-26 00:05 -35.40290 -60.36171 27785 ft 449 kts 53°
2026-04-26 00:06 -35.38639 -60.32915 27381 ft 444 kts 53°
2026-04-26 00:06 -35.37017 -60.29720 26978 ft 441 kts 54°
2026-04-26 00:06 -35.35399 -60.26537 26561 ft 437 kts 54°
2026-04-26 00:06 -35.33815 -60.23423 26178 ft 433 kts 54°
2026-04-26 00:07 -35.32219 -60.20287 25782 ft 430 kts 54°
2026-04-26 00:07 -35.30650 -60.17209 25394 ft 427 kts 54°
2026-04-26 00:07 -35.29079 -60.14129 25007 ft 423 kts 54°
2026-04-26 00:07 -35.27537 -60.11108 24635 ft 420 kts 54°
2026-04-26 00:08 -35.25984 -60.08068 24250 ft 418 kts 54°
2026-04-26 00:08 -35.24442 -60.05053 23868 ft 415 kts 54°
2026-04-26 00:08 -35.22934 -60.02105 23482 ft 413 kts 54°
2026-04-26 00:08 -35.21410 -59.99129 23037 ft 410 kts 54°
2026-04-26 00:09 -35.19898 -59.96180 22616 ft 407 kts 54°
2026-04-26 00:09 -35.18392 -59.93242 22241 ft 403 kts 54°
2026-04-26 00:09 -35.16914 -59.90363 21854 ft 400 kts 54°
2026-04-26 00:09 -35.15452 -59.87518 21475 ft 397 kts 54°
2026-04-26 00:10 -35.13993 -59.84680 21100 ft 393 kts 54°
2026-04-26 00:10 -35.12532 -59.81841 20736 ft 390 kts 54°
2026-04-26 00:10 -35.11098 -59.79057 20367 ft 388 kts 54°
2026-04-26 00:10 -35.09658 -59.76264 20001 ft 385 kts 54°
2026-04-26 00:11 -35.08252 -59.73538 19630 ft 383 kts 54°
2026-04-26 00:11 -35.06829 -59.70782 19270 ft 380 kts 54°
2026-04-26 00:11 -35.05435 -59.68081 18916 ft 378 kts 54°
2026-04-26 00:11 -35.04020 -59.65356 18562 ft 376 kts 53°
2026-04-26 00:12 -35.02596 -59.62712 18155 ft 375 kts 52°
2026-04-26 00:12 -35.01135 -59.60055 17734 ft 373 kts 52°
2026-04-26 00:12 -34.99688 -59.57436 17221 ft 375 kts 52°
2026-04-26 00:12 -34.98215 -59.54772 16542 ft 381 kts 52°
2026-04-26 00:13 -34.96732 -59.52088 15914 ft 385 kts 52°
2026-04-26 00:13 -34.95238 -59.49374 15483 ft 383 kts 52°
2026-04-26 00:13 -34.93783 -59.46723 15121 ft 378 kts 52°
2026-04-26 00:13 -34.92321 -59.44062 14642 ft 378 kts 52°
2026-04-26 00:14 -34.90852 -59.41391 14091 ft 379 kts 52°
2026-04-26 00:14 -34.89379 -59.38714 13556 ft 380 kts 52°
2026-04-26 00:14 -34.87916 -59.36056 13125 ft 376 kts 52°
2026-04-26 00:14 -34.86461 -59.33413 12699 ft 372 kts 52°
2026-04-26 00:15 -34.85034 -59.30824 12245 ft 369 kts 53°
2026-04-26 00:15 -34.83609 -59.28239 11921 ft 363 kts 53°
2026-04-26 00:15 -34.82215 -59.25713 11546 ft 358 kts 53°
2026-04-26 00:15 -34.80835 -59.23216 11126 ft 356 kts 53°
2026-04-26 00:16 -34.79450 -59.20710 10777 ft 351 kts 53°
2026-04-26 00:16 -34.78113 -59.18293 10612 ft 341 kts 53°
2026-04-26 00:16 -34.76802 -59.15922 10428 ft 332 kts 53°
2026-04-26 00:16 -34.75525 -59.13618 10221 ft 325 kts 53°
2026-04-26 00:17 -34.74297 -59.11400 10161 ft 313 kts 53°
2026-04-26 00:17 -34.73088 -59.09220 10085 ft 302 kts 53°
2026-04-26 00:17 -34.71936 -59.07144 9975 ft 294 kts 53°
2026-04-26 00:17 -34.70808 -59.05114 9730 ft 291 kts 53°
2026-04-26 00:18 -34.69670 -59.03069 9407 ft 291 kts 53°
2026-04-26 00:18 -34.68543 -59.01045 9099 ft 289 kts 53°
2026-04-26 00:18 -34.67411 -58.99011 8791 ft 288 kts 53°
2026-04-26 00:18 -34.66295 -58.97007 8505 ft 287 kts 53°
2026-04-26 00:19 -34.65175 -58.94996 8220 ft 286 kts 54°
2026-04-26 00:19 -34.64069 -58.93011 7897 ft 282 kts 54°
2026-04-26 00:19 -34.62973 -58.91045 7484 ft 283 kts 54°
2026-04-26 00:19 -34.61877 -58.89080 7114 ft 282 kts 54°
2026-04-26 00:20 -34.60774 -58.87103 6775 ft 280 kts 54°
2026-04-26 00:20 -34.59692 -58.85164 6419 ft 279 kts 54°
2026-04-26 00:20 -34.58599 -58.83209 6042 ft 279 kts 54°
2026-04-26 00:20 -34.57518 -58.81272 5758 ft 278 kts 54°
2026-04-26 00:21 -34.56477 -58.79332 5485 ft 273 kts 56°
2026-04-26 00:21 -34.55445 -58.77376 5085 ft 273 kts 56°
2026-04-26 00:21 -34.54432 -58.75454 4698 ft 272 kts 56°
2026-04-26 00:21 -34.53421 -58.73539 4380 ft 267 kts 56°
2026-04-26 00:22 -34.52431 -58.71669 4221 ft 255 kts 56°
2026-04-26 00:22 -34.51502 -58.69915 4102 ft 242 kts 56°
2026-04-26 00:22 -34.50611 -58.68236 4011 ft 234 kts 56°
2026-04-26 00:22 -34.49748 -58.66612 3950 ft 221 kts 56°
2026-04-26 00:23 -34.48935 -58.65084 3750 ft 215 kts 56°
2026-04-26 00:23 -34.48142 -58.63595 3549 ft 208 kts 56°
2026-04-26 00:23 -34.47373 -58.62152 3363 ft 201 kts 56°
2026-04-26 00:23 -34.46624 -58.60737 3156 ft 195 kts 59°
2026-04-26 00:24 -34.46335 -58.59208 2992 ft 185 kts 104°
2026-04-26 00:24 -34.46929 -58.57847 2966 ft 188 kts 126°
2026-04-26 00:24 -34.47665 -58.56497 2722 ft 190 kts 125°
2026-04-26 00:24 -34.48388 -58.55175 2464 ft 188 kts 125°
2026-04-26 00:25 -34.49093 -58.53901 2233 ft 178 kts 126°
2026-04-26 00:25 -34.49763 -58.52691 1989 ft 168 kts 126°
2026-04-26 00:25 -34.50398 -58.51545 1811 ft 160 kts 126°
2026-04-26 00:25 -34.50999 -58.50461 1602 ft 149 kts 127°
2026-04-26 00:26 -34.51564 -58.49442 1374 ft 143 kts 127°
2026-04-26 00:26 -34.52122 -58.48438 1200 ft 145 kts 127°
2026-04-26 00:26 -34.52681 -58.47430 1013 ft 145 kts 126°
2026-04-26 00:26 -34.53246 -58.46403 788 ft 145 kts 126°
2026-04-26 00:27 -34.53796 -58.45398 633 ft 143 kts 127°
2026-04-26 00:27 -34.54347 -58.44402 425 ft 142 kts 126°
2026-04-26 00:27 -34.54900 -58.43398 234 ft 142 kts 127°
2026-04-26 00:27 -34.55446 -58.42426 51 ft 139 kts 127°
2026-04-26 00:28 -34.55943 -58.41545 24 ft 100 kts 124°
2026-04-26 00:28 -34.56160 -58.41151 28 ft 36 kts 121°
2026-04-26 00:28 -34.56228 -58.40940 24 ft 24 kts 99°
2026-04-26 00:28 -34.56236 -58.40829 25 ft 7 kts 92°
2026-04-26 00:29 -34.56216 -58.40819 29 ft 4 kts 334°
2026-04-26 00:29 -34.56190 -58.40844 24 ft 5 kts 319°
2026-04-26 00:29 -34.56156 -58.40872 24 ft 6 kts 326°
2026-04-26 00:29 -34.56126 -58.40909 24 ft 6 kts 310°
2026-04-26 00:30 -34.56093 -58.40940 24 ft 6 kts 322°
2026-04-26 00:30 -34.56073 -58.40948 26 ft 3 kts
2026-04-26 00:30 -34.56056 -58.40937 24 ft 3 kts 33°
2026-04-26 00:30 -34.56039 -58.40922 24 ft 3 kts 37°
2026-04-26 00:31 -34.56036 -58.40918 24 ft 0 kts 37°